Location: Borovka
(49.7741°N, 14.5280°E)
Time: 07:35:14
(UTC+00:00)

O/OREOS (USA 219) - Visible Passes

Search period start: 11 March 2026 00:00
Search period end: 21 March 2026 00:00
Orbit: 576 x 599 km, 72.0° (Epoch: 10 March)

Date Brightness Start Highest point End Pass type
(mag) Time Alt. Az. Time Alt. Az. Time Alt. Az.
11 Mar ? 18:17:19 10° NNW 18:21:42 84° WSW 18:26:00 10° SSE visible
11 Mar ? 19:58:33 10° W 19:59:19 10° W 20:00:06 10° WSW visible
12 Mar ? 18:24:46 10° NW 18:29:02 54° WSW 18:33:13 10° S visible
13 Mar ? 18:32:20 10° NW 18:36:18 35° WSW 18:40:12 10° S visible
14 Mar ? 18:40:04 10° NW 18:43:30 23° WSW 18:46:54 10° SSW visible
15 Mar ? 18:48:07 10° WNW 18:50:38 15° W 18:53:09 10° SW visible
20 Mar ? 17:46:35 10° WNW 17:48:56 14° W 17:51:16 10° SW visible
